Weather History for KPKD - November, 2011

Change the Weather History Date:

Tuesday, November 15, 2011

  Actual Average Record
Temperature  
Mean Temperature 28 °F -  
Max Temperature 37 °F 36 °F 68 °F (1953)
Min Temperature 19 °F 18 °F -2 °F (1997)
Degree Days  
Heating Degree Days 37    
Moisture  
Dew Point 25 °F    
Average Humidity 86    
Maximum Humidity 100    
Minimum Humidity 67    
Precipitation  
Precipitation 0.04 in - - ()
Sea Level Pressure  
Sea Level Pressure 29.62 in    
Wind  
Wind Speed 9 mph (West)    
Max Wind Speed 28 mph    
Max Gust Speed 43 mph    
Visibility 6 miles    
Events Fog , Snow    
Averages and records for this station are not official NWS values.
T = Trace of Precipitation, MM = Missing Value Source: NWS Daily Summary

Daily Weather History Graph

Daily Weather History Graph

Search for Another Location

Airport or City:

Trip Planner

Search our weather history database for the weather conditions in past years. The results will help you decide how hot, cold, wet, or windy it might be!

Date:

Astronomy

Nov. 15, 2011 Rise Set
Actual Time 7:22 AM CST 4:46 PM CST
Civil Twilight 6:49 AM CST 5:19 PM CST
Nautical Twilight 6:13 AM CST 5:56 PM CST
Astronomical Twilight 5:37 AM CST 6:31 PM CST
Moon 8:55 PM CST (11/15) 11:25 AM CST (11/15)
Length of Visible Light 10h 29m
Length of Day
9h 23m
Waning Gibbous, 79% of the Moon is Illuminated
Nov 15
Waning Gibbous
Nov 18
Last Quarter
Nov 25
New
Dec 2
First Quarter
Dec 10
Full

Hourly Weather History & Observations

Time (CST) Temp. Windchill Dew Point Humidity Pressure Visibility Wind Dir Wind Speed Gust Speed Precip Events Conditions
12:53 AM 25.0 °F 17.1 °F 21.9 °F 88% 29.54 in 10.0 mi WNW 6.9 mph - N/A   Partly Cloudy
1:53 AM 26.1 °F - 23.0 °F 88% 29.56 in 10.0 mi Calm Calm - N/A   Clear
2:53 AM 26.1 °F 20.5 °F 24.1 °F 92% 29.55 in 10.0 mi South 4.6 mph - N/A   Mostly Cloudy
3:53 AM 28.0 °F - 25.0 °F 88% 29.55 in 10.0 mi Calm Calm - N/A   Overcast
4:53 AM 27.0 °F - 24.1 °F 89% 29.56 in 10.0 mi Calm Calm - N/A   Scattered Clouds
5:53 AM 25.0 °F - 24.1 °F 96% 29.57 in 10.0 mi Calm Calm - N/A   Clear
7:02 AM 23.0 °F - 21.2 °F 93% 29.52 in 2.0 mi Calm Calm - N/A   Clear
7:12 AM 19.4 °F - 17.6 °F 93% 29.53 in 0.8 mi Calm Calm - N/A   Clear
7:23 AM 19.4 °F - 17.6 °F 93% 29.53 in 0.2 mi Calm Calm - N/A Fog Light Freezing Fog
7:53 AM 21.9 °F - 19.9 °F 92% 29.61 in 1.0 mi Calm Calm - N/A   Clear
8:04 AM 19.4 °F - 19.4 °F 100% 29.55 in 0.5 mi Calm Calm - N/A Fog Light Freezing Fog
8:13 AM 19.4 °F - 19.4 °F 100% 29.55 in 2.0 mi Calm Calm - N/A   Clear
8:20 AM 19.4 °F - 17.6 °F 93% 29.55 in 4.0 mi Calm Calm - N/A   Clear
8:53 AM 26.1 °F - 24.1 °F 92% 29.62 in 10.0 mi Calm Calm - N/A   Partly Cloudy
9:53 AM 33.1 °F - 30.0 °F 89% 29.58 in 10.0 mi Calm Calm - N/A   Clear
10:53 AM 37.0 °F 32.4 °F 28.0 °F 70% 29.60 in 10.0 mi SW 5.8 mph - N/A   Partly Cloudy
11:53 AM 37.0 °F 29.8 °F 27.0 °F 67% 29.59 in 10.0 mi WSW 10.4 mph - N/A   Overcast
12:00 PM 35.6 °F 25.2 °F 28.4 °F 75% 29.54 in 1.8 mi WSW 18.4 mph 24.2 mph 0.00 in Snow Light Snow
12:10 PM 33.8 °F 23.2 °F 30.2 °F 87% 29.55 in 0.2 mi West 17.3 mph - 0.01 in Fog , Snow Heavy Snow
12:21 PM 32.0 °F 23.0 °F 30.2 °F 93% 29.55 in 0.5 mi WSW 11.5 mph - 0.03 in Fog , Snow Snow
12:30 PM 32.0 °F 24.2 °F 30.2 °F 93% 29.55 in 0.8 mi West 9.2 mph - 0.03 in Snow Light Snow
12:37 PM 32.0 °F 23.6 °F 30.2 °F 93% 29.54 in 1.0 mi West 10.4 mph - 0.03 in Snow Light Snow
12:41 PM 32.0 °F 23.6 °F 30.2 °F 93% 29.55 in 2.5 mi West 10.4 mph - 0.03 in Snow Light Snow
12:47 PM 32.0 °F 24.8 °F 30.2 °F 93% 29.55 in 4.0 mi West 8.1 mph - 0.04 in Snow Light Snow
12:48 PM 32.0 °F 24.2 °F 30.9 °F 96% 29.61 in 4.0 mi WSW 9.2 mph - 0.04 in Snow Light Snow
12:53 PM 32.0 °F 24.2 °F 30.2 °F 93% 29.55 in 1.8 mi West 9.2 mph - 0.00 in Snow Light Snow
1:04 PM 32.0 °F 21.2 °F 30.2 °F 93% 29.55 in 3.0 mi West 16.1 mph 21.9 mph 0.00 in Snow Light Snow
1:18 PM 33.8 °F 22.8 °F 28.4 °F 81% 29.56 in 10.0 mi West 18.4 mph - 0.00 in   Overcast
1:25 PM 33.8 °F 22.8 °F 28.4 °F 81% 29.56 in 10.0 mi West 18.4 mph 25.3 mph 0.00 in   Mostly Cloudy
1:36 PM 33.8 °F 24.8 °F 28.4 °F 81% 29.56 in 10.0 mi West 12.7 mph - 0.00 in   Mostly Cloudy
1:53 PM 33.1 °F 25.5 °F 28.9 °F 85% 29.61 in 10.0 mi WSW 9.2 mph - 0.00 in   Mostly Cloudy
2:53 PM 33.1 °F 20.6 °F 25.0 °F 72% 29.62 in 10.0 mi West 23.0 mph 38.0 mph 0.00 in   Overcast
3:10 PM 30.2 °F 16.2 °F 26.6 °F 86% 29.57 in 1.5 mi WSW 25.3 mph 38.0 mph 0.00 in Snow Light Snow
3:19 PM 30.2 °F 18.1 °F 26.6 °F 86% 29.58 in 0.5 mi WSW 18.4 mph 27.6 mph 0.00 in Fog , Snow Snow
3:26 PM 30.2 °F 17.4 °F 26.6 °F 86% 29.57 in 2.0 mi WSW 20.7 mph 27.6 mph 0.00 in Snow Light Snow
3:33 PM 30.2 °F 16.2 °F 24.8 °F 80% 29.58 in 9.0 mi WSW 25.3 mph 35.7 mph 0.00 in   Overcast
3:53 PM 30.9 °F 17.5 °F 25.0 °F 79% 29.63 in 9.0 mi WSW 24.2 mph 38.0 mph 0.00 in Snow Light Snow
4:40 PM 30.2 °F 15.9 °F 26.6 °F 86% 29.59 in 5.0 mi West 26.5 mph 38.0 mph 0.00 in Snow Light Snow
4:53 PM 30.0 °F 16.0 °F 26.1 °F 85% 29.66 in 6.0 mi West 25.3 mph 42.6 mph 0.00 in Snow Light Snow
5:53 PM 28.9 °F 14.0 °F 24.1 °F 82% 29.72 in 10.0 mi WNW 27.6 mph 42.6 mph 0.00 in   Overcast
6:13 PM 30.2 °F 15.7 °F 24.8 °F 80% 29.67 in 9.0 mi WNW 27.6 mph 39.1 mph 0.00 in Snow Light Snow
6:45 PM 28.4 °F 14.7 °F 24.8 °F 86% 29.70 in 4.0 mi WNW 21.9 mph 28.8 mph 0.00 in Snow Light Snow
6:53 PM 28.0 °F 13.9 °F 24.1 °F 85% 29.77 in 5.0 mi WNW 23.0 mph 29.9 mph 0.00 in Snow Light Snow
7:53 PM 28.0 °F 13.0 °F 23.0 °F 81% 29.81 in 8.0 mi WNW 26.5 mph 38.0 mph 0.00 in Snow Light Snow
8:53 PM 26.1 °F 12.3 °F 19.0 °F 75% 29.84 in 10.0 mi WNW 19.6 mph 29.9 mph 0.00 in   Overcast
9:11 PM 26.6 °F 11.1 °F 17.6 °F 69% 29.78 in 10.0 mi WNW 26.5 mph 34.5 mph N/A   Overcast
9:53 PM 25.0 °F 11.3 °F 17.1 °F 72% 29.86 in 10.0 mi WNW 18.4 mph 26.5 mph N/A   Mostly Cloudy
10:53 PM 24.1 °F 13.1 °F 17.1 °F 75% 29.87 in 10.0 mi WNW 11.5 mph - N/A   Mostly Cloudy
11:26 PM 24.8 °F 14.6 °F 19.4 °F 80% 29.83 in 8.0 mi WNW 10.4 mph - 0.00 in Snow Light Snow
11:53 PM 25.0 °F 13.1 °F 19.0 °F 78% 29.90 in 10.0 mi WNW 13.8 mph - 0.00 in   Overcast